EST,Max TemperatureF,Mean TemperatureF,Min TemperatureF,Max Dew PointF,MeanDew PointF,Min DewpointF,Max Humidity, Mean Humidity, Min Humidity, Max Sea Level PressureIn, Mean Sea Level PressureIn, Min Sea Level PressureIn, Max VisibilityMiles, Mean VisibilityMiles, Min VisibilityMiles, Max Wind SpeedMPH, Mean Wind SpeedMPH, Max Gust SpeedMPH,PrecipitationIn, CloudCover, Events, WindDirDegrees
2012-1-1,46,40,34,39,36,32,100,85,70,30.03,29.86,29.58,10,6,0,23,7,27,0.13,7,,149
2012-1-2,45,35,25,41,22,9,92,70,47,29.69,29.57,29.51,10,10,2,21,13,28,0.02,6,,250
2012-1-3,25,14,3,12,2,-6,92,71,50,30.08,29.89,29.68,10,10,1,15,9,18,0.00,5,,319
2012-1-4,19,10,1,10,1,-4,87,68,49,30.13,30.00,29.85,10,10,5,8,4,,0.00,7,,354
2012-1-5,28,21,14,23,16,10,92,76,60,29.87,29.80,29.72,10,8,3,10,4,17,0.00,7,,244
2012-1-6,36,26,16,27,22,10,92,81,69,29.85,29.74,29.66,10,9,3,13,8,20,0.00,6,,134
2012-1-7,45,38,30,34,29,25,92,72,51,29.88,29.72,29.64,10,10,10,14,5,22,0.00,5,,217
2012-1-8,39,29,18,27,20,14,80,67,54,30.27,30.10,29.88,10,10,10,13,7,18,0.00,6,,327
2012-1-9,34,25,16,21,16,12,92,72,51,30.28,30.12,29.87,10,10,10,8,4,,0.00,4,,144
2012-1-10,39,34,28,27,21,12,75,59,43,29.96,29.82,29.74,10,10,10,14,7,22,0.00,8,,271
2012-1-11,34,27,19,23,18,12,84,71,58,30.10,30.02,29.95,10,10,10,20,6,28,0.00,5,,53
2012-1-12,34,31,28,28,27,23,85,79,72,29.95,29.68,29.47,10,8,0,23,14,31,0.00,8,,141
2012-1-13,36,29,21,32,25,16,96,83,69,29.48,29.30,29.08,10,7,1,20,15,31,0.07,8,,191
2012-1-14,28,16,3,21,12,0,88,72,55,29.97,29.76,29.51,10,9,2,18,11,33,0.00,5,,315
2012-1-15,5,0,-6,-2,-6,-11,91,80,69,30.52,30.31,30.05,10,10,10,14,7,18,0.00,4,,340
2012-1-16,27,9,-9,12,-5,-31,100,61,22,30.54,30.34,30.05,10,10,10,20,8,23,0.00,2,,131
2012-1-17,52,39,25,43,29,18,92,80,68,30.00,29.69,29.30,10,10,3,18,7,28,0.02,8,,143
2012-1-18,52,32,12,39,14,1,76,60,44,30.15,29.83,29.35,10,10,10,24,13,41,0.01,4,,304
2012-1-19,25,13,1,19,6,-6,88,65,42,30.19,30.06,29.86,10,9,2,23,13,30,0.00,2,,135
2012-1-20,28,19,10,19,5,-4,88,62,36,30.26,30.07,29.85,10,10,4,14,9,20,0.00,2,,304
2012-1-21,16,10,3,10,6,-4,92,70,48,30.32,30.19,30.12,10,7,1,7,3,,0.00,6,,52
2012-1-22,27,14,0,18,5,-8,96,69,42,30.49,30.43,30.34,10,10,10,18,9,23,0.00,1,,136
2012-1-23,45,35,25,39,28,18,92,80,68,30.37,30.11,29.82,10,10,5,28,21,36,0.20,8,,124
2012-1-24,48,41,34,45,35,25,92,78,64,30.02,29.89,29.75,10,10,9,15,9,25,0.00,8,,246
2012-1-25,34,31,28,27,22,19,78,69,59,30.21,30.16,30.03,10,10,9,14,9,22,0.00,8,,295
2012-1-26,36,32,27,28,22,18,85,66,47,30.20,30.11,29.93,10,9,2,21,5,25,0.01,7,,122
2012-1-27,43,38,32,39,33,27,100,85,70,29.82,29.50,29.25,10,8,2,25,17,36,0.75,8,,161
2012-1-28,41,38,34,30,25,21,75,67,59,29.95,29.82,29.71,10,10,5,16,9,25,0.00,5,,237
2012-1-29,34,31,28,21,17,12,75,59,43,30.00,29.93,29.82,10,10,10,20,11,33,0.00,5,,233
2012-1-30,34,27,19,28,15,9,100,73,46,30.22,30.08,29.88,10,9,1,17,7,27,0.02,7,,304
2012-1-31,43,31,19,28,22,12,91,75,59,30.21,30.03,29.90,10,9,3,17,11,17,0.00,8,,132